TimeAKST,TemperatureF,Dew PointF,Humidity,Sea Level PressureIn,VisibilityMPH,Wind Direction,Wind SpeedMPH,Gust SpeedMPH,PrecipitationIn,Events,Conditions,WindDirDegrees,DateUTC
12:54 AM,33.1,30.9,92,29.37,10.0,WNW,16.1,-,N/A,,Mostly Cloudy,290,2013-01-25 09:54:00
1:54 AM,32.0,30.9,96,29.37,10.0,WNW,15.0,-,N/A,,Overcast,300,2013-01-25 10:54:00
2:54 AM,32.0,30.9,96,29.37,10.0,WNW,13.8,-,N/A,,Overcast,290,2013-01-25 11:54:00
3:54 AM,32.0,30.0,92,29.36,10.0,WNW,12.7,-,N/A,,Overcast,290,2013-01-25 12:54:00
4:54 AM,33.1,30.9,92,29.36,9.0,WNW,12.7,-,0.00,Snow,Light Snow,300,2013-01-25 13:54:00
5:54 AM,32.0,30.0,92,29.37,10.0,West,12.7,-,0.00,,Overcast,280,2013-01-25 14:54:00
6:54 AM,33.1,30.9,92,29.39,4.0,NW,5.8,-,0.00,Snow,Light Snow,310,2013-01-25 15:54:00
7:04 AM,32.0,30.2,93,29.39,2.5,WSW,3.5,-,0.00,Snow,Light Snow,240,2013-01-25 16:04:00
7:22 AM,32.0,30.2,93,29.39,1.8,Calm,Calm,-,0.00,Snow,Light Snow,0,2013-01-25 16:22:00
7:36 AM,33.8,32.0,93,29.39,1.8,Calm,Calm,-,0.01,Snow,Light Snow,0,2013-01-25 16:36:00
7:41 AM,33.8,32.0,93,29.40,2.0,Calm,Calm,-,0.02,Snow,Light Snow,0,2013-01-25 16:41:00
7:54 AM,33.1,32.0,96,29.41,1.5,Calm,Calm,-,0.03,Snow,Light Snow,0,2013-01-25 16:54:00
8:07 AM,32.0,32.0,100,29.40,1.8,East,3.5,-,0.01,Snow,Light Snow,100,2013-01-25 17:07:00
8:54 AM,33.1,32.0,96,29.41,1.5,East,5.8,-,0.05,Snow,Light Snow,100,2013-01-25 17:54:00
9:12 AM,33.8,32.0,93,29.41,1.5,East,5.8,-,0.01,Snow,Light Snow,100,2013-01-25 18:12:00
9:49 AM,33.8,32.0,93,29.41,3.0,East,4.6,-,0.04,Snow,Light Snow,80,2013-01-25 18:49:00
9:54 AM,33.1,32.0,96,29.42,5.0,ESE,6.9,-,0.04,Snow,Light Snow,120,2013-01-25 18:54:00
10:23 AM,33.8,32.0,93,29.41,9.0,ESE,8.1,-,0.02,Rain,Light Rain,120,2013-01-25 19:23:00
10:54 AM,37.0,34.0,89,29.42,10.0,ESE,8.1,-,0.02,Rain,Light Rain,110,2013-01-25 19:54:00
11:54 AM,36.0,35.1,97,29.42,10.0,East,4.6,-,0.00,,Overcast,80,2013-01-25 20:54:00
12:54 PM,37.9,35.1,89,29.42,10.0,East,8.1,-,0.00,,Overcast,80,2013-01-25 21:54:00
1:54 PM,39.0,35.1,86,29.42,10.0,East,8.1,-,0.01,,Overcast,90,2013-01-25 22:54:00
2:04 PM,39.2,35.6,87,29.41,10.0,East,8.1,-,N/A,,Overcast,90,2013-01-25 23:04:00
2:22 PM,39.2,35.6,87,29.41,10.0,ESE,8.1,-,N/A,,Overcast,120,2013-01-25 23:22:00
2:54 PM,39.0,35.1,86,29.41,10.0,East,8.1,17.3,N/A,,Overcast,90,2013-01-25 23:54:00
3:54 PM,37.9,35.1,89,29.42,10.0,ESE,6.9,-,N/A,,Overcast,120,2013-01-26 00:54:00
4:54 PM,37.9,35.1,89,29.43,10.0,East,8.1,16.1,N/A,,Overcast,80,2013-01-26 01:54:00
5:54 PM,39.0,35.1,86,29.42,10.0,East,9.2,-,N/A,,Overcast,90,2013-01-26 02:54:00
6:54 PM,39.0,35.1,86,29.42,10.0,East,9.2,18.4,0.00,,Overcast,90,2013-01-26 03:54:00
7:54 PM,39.0,35.1,86,29.42,10.0,East,12.7,21.9,N/A,,Overcast,100,2013-01-26 04:54:00
8:54 PM,37.9,36.0,93,29.44,10.0,East,6.9,-,N/A,,Overcast,90,2013-01-26 05:54:00
9:09 PM,37.4,35.6,93,29.43,10.0,East,11.5,19.6,0.00,Rain,Light Rain,100,2013-01-26 06:09:00
9:50 PM,37.4,35.6,93,29.43,10.0,East,9.2,18.4,0.00,Rain,Light Rain,90,2013-01-26 06:50:00
9:54 PM,37.9,36.0,93,29.44,10.0,East,9.2,-,0.00,,Overcast,100,2013-01-26 06:54:00
10:54 PM,37.9,35.1,89,29.44,10.0,East,10.4,19.6,N/A,,Overcast,100,2013-01-26 07:54:00
11:29 PM,37.4,35.6,93,29.45,10.0,East,8.1,-,N/A,,Overcast,90,2013-01-26 08:29:00
11:54 PM,37.9,36.0,93,29.46,10.0,East,11.5,19.6,N/A,,Overcast,100,2013-01-26 08:54:00